Regional Weather Roundup
Issued by NWS

Home | Current Version | Previous Version | Text Only | Print | Product List | Glossary On
Versions: 1 2 3 4 5 6 7 8 9 10 11 12 13 14 15 16 17 18 19 20 21 22 23 24 25 26 27 28 29 30 31 32 33 34 35 36 37 38 39 40 41 42 43 44 45 46 47 48 49 50
000
ASUS46 KSEW 210110
RWRWA

WASHINGTON REGIONAL WEATHER ROUNDUP
NATIONAL WEATHER SERVICE SEATTLE WA
500 PM PST FRI JAN 20 2017

NOTE:"FAIR" INDICATES FEW OR NO CLOUDS BELOW 12,000 FEET WITH NO
SIGNIFICANT WEATHER AND/OR OBSTRUCTIONS TO VISIBILITY.

WAZ507-509-555>559-210200-
SEATTLE, TACOMA, EVERETT, AND VICINITY

CITY           SKY/WX    TMP DP  RH WIND       PRES   REMARKS
EVERETT        CLOUDY    48  32  53 CALM      29.11S
BOEING FIELD   CLOUDY    50  32  50 SE6       29.11R
RENTON         CLOUDY    50  32  50 SE5       29.11R
SEATAC AIRPORT CLOUDY    49  32  52 E8        29.11R
JBLM-MCCHORD   CLOUDY    45  42  91 W7        29.11R
PUYALLUP         N/A     45  41  87 CALM      29.11R
BREMERTON      CLOUDY    45  37  76 W7        29.14F
JBLM-FT LEWIS  CLOUDY    44  44  99 SW3       29.11R
TACOMA NARROWS CLOUDY    46  38  73 W3        29.12R
$$

WAZ001-503-506-510-514-515-210200-
NORTH INTERIOR

CITY           SKY/WX    TMP DP  RH WIND       PRES   REMARKS
BELLINGHAM     MOCLDY    45  35  68 N7        29.12S
FRIDAY HARBOR  CLOUDY    46  36  68 VRB5      29.13S
EASTSOUND      CLOUDY    45  41  87 N5        29.13S
PORT ANGELES   CLOUDY    42  39  89 SW3       29.11R
EDIZ HOOK      MOCLDY    45  41  86 SW5       29.10S
PORT TOWNSEND  CLOUDY    43  39  87 E5        29.12S
NAS WHIDBEY    MOCLDY    49  33  54 E3        29.15S
ARLINGTON      NOT AVBL
BURLINGTON     MOCLDY    48  36  61 NE8       29.12S
$$

WAZ020-022-039-040-504-511-512-210200-
SOUTHWEST INTERIOR

CITY           SKY/WX    TMP DP  RH WIND       PRES   REMARKS
SHELTON        LGT RAIN  44  41  89 NW5       29.11R
OLYMPIA        LGT RAIN  42  42 100 W3        29.13R
CHEHALIS       LGT RAIN  45  45 100 SW3       29.13R
KELSO          CLOUDY    43  41  93 CALM      29.14R
VANCOUVER      CLOUDY    40  37  89 SE3       29.13R
SCAPPOOSE, OR  CLOUDY    42  40  92 CALM      29.13S
PORTLAND, OR   CLOUDY    39  35  86 E10       29.13S
$$

WAZ021-516-517-210200-
WASHINGTON COAST

CITY           SKY/WX    TMP DP  RH WIND       PRES   REMARKS
FORKS          LGT RAIN  44  42  93 NE3       29.08S
HOQUIAM        LGT RAIN  44  43  96 NE10      29.09S
ASTORIA, OR    CLOUDY    47  39  74 E7        29.07R
$$

WAZ019-023-024-040-567>569-210200-
CASCADE MOUNTAINS AND COLUMBIA GORGE

CITY           SKY/WX    TMP DP  RH WIND       PRES   REMARKS
STAMPEDE PASS  NOT AVBL
TROUTDALE, OR  CLOUDY    40  35  83 E21G29    29.13S
THE DALLES, OR LGT RAIN  33  33 100 CALM      29.21S VSB 1
$$

WAZ026-027-041>044-520-521-210200-
EAST SLOPES

CITY           SKY/WX    TMP DP  RH WIND       PRES   REMARKS
OMAK           CLOUDY    36  31  82 N12       29.27F
WENATCHEE      CLOUDY    32  32 100 NW3       29.25S FOG
ELLENSBURG     LGT SNOW  34  31  88 CALM      29.20R FOG
YAKIMA         CLOUDY    37  34  89 W8        29.20S
$$

WAZ028-034-035-210200-
COLUMBIA BASIN

CITY           SKY/WX    TMP DP  RH WIND       PRES   REMARKS
EPHRATA        LGT RAIN  38  29  70 N14       29.21F
MOSES LAKE     CLOUDY    35  31  85 N6        29.23F
PASCO          CLOUDY    35  33  92 W5        29.23S
HERMISTON, OR  CLOUDY    36  32  85 E8        29.16F
$$

WAZ036>038-210200-
NORTHEAST WASHINGTON

CITY           SKY/WX    TMP DP  RH WIND       PRES   REMARKS
SPOKANE GEIGER MOCLDY    39  30  70 NE7       29.23F
SPOKANE FELTS  PTCLDY    36  30  79 NE3       29.24F
FAIRCHILD AFB  MOCLDY    36  32  87 E9        29.22F
COEURDALENE,ID PTCLDY    38  31  76 N14       29.25S
DEER PARK      MOCLDY    39  30  70 NE12      29.25F
$$

WAZ029>033-210200-
SOUTHEAST WASHINGTON

CITY           SKY/WX    TMP DP  RH WIND       PRES   REMARKS
PULLMAN        CLOUDY    37  29  72 E9        29.22F
LEWISTON, ID   CLOUDY    38  30  73 S3        29.22F
WALLA WALLA    CLOUDY    33  29  85 SE5       29.18S
PENDLETON, OR  CLOUDY    42  30  62 SE13      29.14S
$$



USA.gov is the U.S. government's official web portal to all federal, state and local government web resources and services.